Hourly Weather Roundup
Issued by NWS

Current Version | Previous Version | Text Only | Print | Product List | Glossary On
Versions: 1 2 3 4 5 6 7 8 9 10 11 12 13 14 15 16 17 18 19 20 21 22 23 24 25 26 27 28 29 30 31 32 33 34 35 36 37 38 39 40 41 42 43 44 45 46 47 48 49 50
000
NZUS43 KILX 282010
HWRCRS

CRS HOURLY WEATHER ROUNDUP
NATIONAL WEATHER SERVICE, LINCOLN IL
300 PM CDT FRI AUG 28 2015


CITY           SKY/WX    TMP DP  RH WIND       PRES   REMARKS
CHAMPAIGN      PTSUNNY   79  58  48 VRB7      30.11F HX  80
LAWRENCEVILLE  SUNNY     81  57  43 E8        30.11F HX  81
PEORIA         CLOUDY    77  60  55 SE6       30.07F
SPRINGFIELD    CLOUDY    80  60  50 S12G18    30.07F HX  81
$$


CITY           SKY/WX    TMP DP  RH WIND       PRES   REMARKS
BLOOMINGTON    CLOUDY    77  62  59 SE9       30.11F
DECATUR        PTSUNNY   80  58  46 SE13      30.09F HX  80
EFFINGHAM      MOSUNNY   80  53  39 E10       30.10F HX  80
FLORA          SUNNY     81  56  42 SE10      30.10F HX  81
GALESBURG      CLOUDY    71  63  77 SE5       30.05F
JACKSONVILLE   CLOUDY    78  60  54 SE9       30.06F
LACON          CLOUDY    72  63  72 SE6       30.06F
LINCOLN        CLOUDY    80  57  46 S10       30.07F HX  80
LITCHFIELD     PTSUNNY   76  57  51 SE12      30.08F

CITY           SKY/WX    TMP DP  RH WIND       PRES   REMARKS
MACOMB         CLOUDY    73  63  71 SE8       30.07F
MATTOON        MOSUNNY   78  56  46 SE9       30.10F
MOLINE         CLOUDY    71  63  75 SE7       30.05F
OLNEY          PTSUNNY   79  59  50 SE9       30.10F HX  80
PARIS          MOSUNNY   79  60  51 SE5       30.12F HX  80
PONTIAC        CLOUDY    76  64  66 S3        30.11F
QUINCY         CLOUDY    72  62  71 S7        30.03F
RANTOUL        PTSUNNY   81  60  49 SE7       30.11F HX  81
ROBINSON       SUNNY     82  58  43 E8        30.11F HX  81
TAYLORVILLE    PTSUNNY   79  59  50 S12       30.08F HX  80
TERRE HAUTE    MOSUNNY   81  56  42 SE9       30.12F HX  81
$$


CITY           SKY/WX    TMP DP  RH WIND       PRES   REMARKS
BURLINGTON     CLOUDY    71  64  78 S12       30.02F
CHICAGO        CLOUDY    72  59  63 SW5       30.11F
DES MOINES     CLOUDY    74  67  78 S16G22    29.85F
EVANSVILLE     SUNNY     82  58  43 SE6       30.09F HX  82
INDIANAPOLIS   PTSUNNY   77  54  44 S8        30.12F
KANSAS CITY    CLOUDY    78  65  63 S15       29.90F HX  80
MILWAUKEE      CLOUDY    70  60  70 SE6       30.11S
ST LOUIS       CLOUDY    81  59  47 SE14G22   30.07F HX  81
$$




USA.gov is the U.S. government's official web portal to all federal, state and local government web resources and services.